GW5236 Weather Reports


Display with metric or nautical units.
time (UTC)temp
F
wind
direction
speed
MPH
gust
MPH
rain 1hr
in
rain 24hr
in
rain mn
in
humidity
%
barometer
mb
20260506082012 44 300 3.0 6.0 0.07 1.08 0.28 95 1008.2
20260506081524 44 33 2.0 6.0 0.06 1.07 0.27 95 1008.2
20260506081004 44 341 1.0 6.0 0.05 1.05 0.26 95 1008.2
20260506080504 44 338 3.0 7.0 0.04 1.04 0.25 94 1008.1
20260506073508 45 5 2.0 9.0 0.03 1.01 0.21 95 1007.6
20260506073022 45 30 3.0 8.0 0.04 1.01 0.21 95 1007.7
20260506072008 45 334 2.0 8.0 0.05 1.01 0.21 95 1007.5
20260506071530 45 333 2.0 12.0 0.05 1.01 0.21 95 1007.6
20260506071012 45 265 3.0 12.0 0.06 1.01 0.21 95 1007.6
20260506070509 45 328 2.0 5.0 0.07 1.01 0.21 95 1007.9
20260506062512 45 315 2.0 9.0 0.10 0.97 0.17 95 1007.9
20260506062009 45 298 2.0 9.0 0.09 0.96 0.16 95 1007.7
20260506061531 45 280 3.0 6.0 0.09 0.96 0.16 95 1007.7
20260506061010 45 335 1.0 4.0 0.08 0.95 0.15 95 1007.7
20260506051001 45 17 2.0 9.0 0.07 0.87 0.07 94 1007.8
20260506050501 45 19 2.0 8.0 0.07 0.87 0.07 94 1007.9
20260506045004 46 265 2.0 8.0 0.06 0.86 0.06 94 1008.2
20260506044511 46 317 2.0 8.0 0.05 0.85 0.05 94 1008.2
20260506044005 46 321 1.0 8.0 0.05 0.84 0.04 94 1008.3
20260506043505 46 360 1.0 8.0 0.03 0.82 0.02 94 1008.3
20260506043015 46 312 1.0 6.0 0.02 0.81 0.01 94 1008.2
20260506042507 46 16 2.0 8.0 0.02 0.80 0.00 94 1008.1
20260506042007 46 284 1.0 8.0 0.02 0.80 0.00 94 1008.1
20260506041505 46 321 2.0 6.0 0.02 0.80 0.00 94 1007.9
20260506041001 46 346 1.0 6.0 0.03 0.80 0.00 94 1007.9
20260506040500 46 347 1.0 5.0 0.04 0.80 0.00 94 1007.9
20260506040014 47 20 2.0 6.0 0.05 0.80 0.00 94 1007.9
20260506035504 47 40 2.0 6.0 0.06 0.80 0.80 95 1007.8
20260506034506 47 301 3.0 9.0 0.09 0.80 0.80 94 1008.0
20260506034005 47 318 3.0 9.0 0.09 0.79 0.79 94 1008.0
20260506033504 47 348 3.0 8.0 0.11 0.79 0.79 94 1007.9
20260506033010 47 336 3.0 8.0 0.12 0.79 0.79 94 1008.1
20260506032505 47 350 3.0 11.0 0.12 0.78 0.78 94 1008.1
20260506032007 47 344 4.0 11.0 0.12 0.78 0.78 94 1008.2
20260506031533 48 346 3.0 10.0 0.13 0.78 0.78 94 1008.3
20260506031013 48 9 3.0 8.0 0.12 0.77 0.77 94 1008.4
20260506030507 48 335 3.0 6.0 0.12 0.76 0.76 95 1008.7
20260506030004 48 9 3.0 9.0 0.12 0.75 0.75 95 1008.7
20260506025503 48 10 1.0 9.0 0.12 0.74 0.74 95 1008.7
20260506025004 48 5 1.0 8.0 0.11 0.72 0.72 95 1008.6
20260506024515 48 80 1.0 5.0 0.11 0.71 0.71 95 1008.9
20260506023505 48 295 1.0 7.0 0.10 0.68 0.68 95 1008.9
20260506023007 49 319 3.0 7.0 0.10 0.67 0.67 95 1008.9
20260506022005 49 306 2.0 8.0 0.11 0.66 0.66 95 1008.8
20260506021514 49 321 3.0 8.0 0.12 0.65 0.65 95 1008.6
20260506021005 49 301 2.0 8.0 0.14 0.65 0.65 94 1008.6
20260506020511 49 19 1.0 8.0 0.15 0.64 0.64 94 1008.6
20260506020018 49 261 2.0 9.0 0.15 0.63 0.63 94 1008.5
20260506015508 49 291 2.0 9.0 0.15 0.62 0.62 94 1008.5
20260506015002 49 269 3.0 9.0 0.15 0.61 0.61 94 1008.5
20260506014506 49 352 2.0 6.0 0.15 0.60 0.60 94 1008.5
20260506014004 49 349 3.0 6.0 0.15 0.58 0.58 94 1008.5
20260506013507 50 325 2.0 8.0 0.15 0.58 0.58 94 1008.4
20260506013005 50 303 3.0 8.0 0.15 0.57 0.57 93 1008.5
20260506012505 50 292 3.0 10.0 0.15 0.56 0.56 93 1008.4
20260506012005 50 349 3.0 10.0 0.15 0.55 0.55 92 1008.2
20260506011513 51 265 3.0 7.0 0.14 0.52 0.52 92 1008.3
20260506011005 52 297 2.0 6.0 0.13 0.51 0.51 90 1008.0
20260506010506 53 338 2.0 8.0 0.13 0.49 0.49 88 1007.7
20260506010018 55 26 4.0 8.0 0.13 0.48 0.48 87 1007.8
20260506005508 58 312 2.0 5.0 0.13 0.47 0.47 95 1007.9
20260506004525 58 178 0.0 5.0 0.12 0.45 0.45 94 1007.5
20260506003503 58 193 2.0 8.0 0.11 0.43 0.43 94 1007.4
20260506003012 58 191 0.0 8.0 0.11 0.42 0.42 94 1007.4
20260506002503 58 191 1.0 5.0 0.10 0.41 0.41 94 1007.3
20260506002005 58 187 1.0 5.0 0.10 0.40 0.40 94 1007.4
20260506001507 58 202 3.0 7.0 0.11 0.39 0.39 94 1007.3
20260506001008 58 199 3.0 8.0 0.10 0.38 0.38 94 1007.2
20260506000014 58 198 4.0 10.0 0.09 0.35 0.35 94 1007.3
20260505235007 58 318 4.0 8.0 0.09 0.34 0.34 94 1007.3
20260505234518 58 165 3.0 8.0 0.08 0.33 0.33 94 1007.1
20260505234010 58 171 3.0 8.0 0.09 0.33 0.33 94 1007.2
20260505233509 58 190 4.0 8.0 0.08 0.32 0.32 94 1007.2
20260505233023 58 218 3.0 7.0 0.07 0.31 0.31 94 1007.3
20260505232507 58 156 2.0 9.0 0.07 0.31 0.31 94 1007.2
20260505232001 58 224 3.0 9.0 0.07 0.30 0.30 94 1007.3
20260505231508 58 207 2.0 5.0 0.05 0.28 0.28 94 1007.4
20260505231004 58 172 2.0 4.0 0.06 0.28 0.28 94 1007.4
20260505230019 58 156 1.0 3.0 0.05 0.26 0.26 94 1007.6
20260505225509 58 173 1.0 3.0 0.05 0.26 0.26 94 1007.6
20260505225011 58 141 1.0 5.0 0.04 0.25 0.25 93 1007.8
20260505224518 58 166 2.0 7.0 0.05 0.25 0.25 93 1007.9
20260505224004 58 143 3.0 6.0 0.04 0.24 0.24 93 1007.9
20260505223514 59 203 3.0 7.0 0.04 0.24 0.24 93 1007.9
20260505223022 59 175 3.0 7.0 0.04 0.24 0.24 93 1007.9
20260505222507 59 190 3.0 7.0 0.05 0.24 0.24 93 1007.9
20260505221526 59 157 1.0 5.0 0.04 0.23 0.23 92 1008.1
20260505221006 59 189 1.0 5.0 0.04 0.22 0.22 92 1008.1
20260505220504 59 183 2.0 5.0 0.04 0.21 0.21 92 1008.2
20260505220012 59 229 1.0 6.0 0.06 0.21 0.21 92 1008.0
20260505215505 59 178 2.0 8.0 0.08 0.21 0.21 92 1008.0
20260505215006 59 230 2.0 8.0 0.11 0.21 0.21 92 1008.0
20260505214518 59 244 3.0 8.0 0.14 0.20 0.20 91 1007.9
20260505213504 59 171 2.0 6.0 0.18 0.20 0.20 91 1007.8
20260505213019 59 309 2.0 8.0 0.18 0.20 0.20 91 1007.8
20260505212508 59 244 3.0 7.0 0.19 0.19 0.19 91 1007.7
20260505212012 59 202 1.0 7.0 0.19 0.19 0.19 91 1007.6
20260505211524 59 198 1.0 12.0 0.19 0.19 0.19 91 1007.6
20260505210511 59 213 5.0 10.0 0.17 0.17 0.17 89 1007.7
20260505210010 60 215 3.0 11.0 0.15 0.15 0.15 88 1007.8
20260505205509 60 24 3.0 11.0 0.13 0.13 0.13 87 1007.8
20260505205011 61 182 3.0 10.0 0.10 0.10 0.10 84 1007.8
20260505204515 63 284 4.0 9.0 0.06 0.06 0.06 80 1007.7
20260505204006 64 294 2.0 11.0 0.02 0.02 0.02 76 1007.4
20260505203508 65 193 4.0 11.0 0.02 0.02 0.02 72 1007.1
20260505203016 66 197 4.0 10.0 0.02 0.02 0.02 70 1007.1
20260505202509 66 217 5.0 13.0 0.00 0.00 0.00 67 1007.2
20260505202008 66 206 3.0 14.0 0.00 0.00 0.00 67 1007.2
20260505201520 66 196 4.0 14.0 0.00 0.00 0.00 67 1007.3
20260505201008 67 173 3.0 11.0 0.00 0.00 0.00 68 1007.3
20260505200037 67 156 5.0 15.0 0.00 0.00 0.00 66 1007.5
20260505195511 67 183 4.0 11.0 0.00 0.00 0.00 68 1007.5
20260505194514 66 133 4.0 10.0 0.00 0.00 0.00 71 1007.6
20260505194007 65 198 2.0 8.0 0.00 0.00 0.00 73 1007.7
20260505193508 65 243 2.0 9.0 0.00 0.00 0.00 75 1007.8
20260505193018 65 292 3.0 9.0 0.00 0.00 0.00 76 1007.8
20260505192506 65 171 2.0 6.0 0.00 0.00 0.00 75 1007.8
20260505192008 64 227 3.0 7.0 0.00 0.00 0.00 75 1007.9
20260505191520 65 181 1.0 12.0 0.00 0.00 0.00 75 1007.9
20260505191012 65 275 3.0 14.0 0.00 0.00 0.00 73 1008.0
20260505190509 65 140 4.0 14.0 0.00 0.00 0.00 71 1008.2
20260505190006 66 339 6.0 11.0 0.00 0.00 0.00 69 1008.2
20260505185504 66 190 4.0 15.0 0.00 0.00 0.00 68 1008.2
20260505184510 66 157 9.0 12.0 0.00 0.00 0.00 68 1008.2
20260505184007 66 196 6.0 13.0 0.00 0.00 0.00 69 1008.2
20260505183508 66 198 4.0 13.0 0.00 0.00 0.00 69 1008.2
20260505183015 66 171 5.0 9.0 0.00 0.00 0.00 69 1008.2
20260505182507 66 184 4.0 11.0 0.00 0.00 0.00 69 1008.3
20260505182002 66 173 4.0 15.0 0.00 0.00 0.00 69 1008.3
20260505181503 66 202 5.0 15.0 0.00 0.00 0.00 68 1008.3
20260505181003 66 195 5.0 13.0 0.00 0.00 0.00 66 1008.3
20260505180503 67 188 5.0 13.0 0.00 0.00 0.00 67 1008.3
20260505180009 67 207 4.0 11.0 0.00 0.00 0.00 66 1008.3
20260505175004 67 202 4.0 10.0 0.00 0.00 0.00 68 1008.2
20260505174509 67 215 3.0 11.0 0.00 0.00 0.00 67 1008.3
20260505173505 67 330 4.0 15.0 0.00 0.00 0.00 66 1008.2
20260505173014 67 303 6.0 15.0 0.00 0.00 0.00 66 1008.3
20260505172504 67 119 3.0 15.0 0.00 0.00 0.00 65 1008.4
20260505172009 67 154 4.0 14.0 0.00 0.00 0.00 64 1008.4
20260505171522 68 241 5.0 14.0 0.00 0.00 0.00 65 1008.5
20260505171003 68 196 4.0 14.0 0.00 0.00 0.00 65 1008.6
20260505170502 68 236 4.0 14.0 0.00 0.00 0.00 64 1008.6
20260505170012 68 191 5.0 12.0 0.00 0.00 0.00 63 1008.5
20260505165503 68 192 2.0 15.0 0.00 0.00 0.00 66 1008.6
20260505165006 68 190 6.0 14.0 0.00 0.00 0.00 64 1008.5
20260505164505 69 211 5.0 14.0 0.00 0.00 0.00 63 1008.6
20260505164004 69 217 6.0 12.0 0.00 0.00 0.00 61 1008.5
20260505163504 69 232 4.0 11.0 0.00 0.00 0.00 62 1008.5
20260505163010 69 189 4.0 12.0 0.00 0.00 0.00 62 1008.6
20260505162505 69 284 3.0 12.0 0.00 0.00 0.00 64 1008.5
20260505162007 69 193 4.0 19.0 0.00 0.00 0.00 62 1008.5
20260505161516 69 168 7.0 19.0 0.00 0.00 0.00 62 1008.6
20260505161006 69 164 4.0 12.0 0.00 0.00 0.00 64 1008.7
20260505160508 68 200 4.0 12.0 0.00 0.00 0.00 64 1008.8
20260505153010 68 209 8.0 16.0 0.00 0.00 0.00 65 1008.9
20260505152505 67 279 4.0 13.0 0.00 0.00 0.00 66 1008.8
20260505152008 67 153 5.0 11.0 0.00 0.00 0.00 69 1008.6
20260505151516 66 111 3.0 13.0 0.00 0.00 0.00 69 1008.5
20260505151004 66 290 5.0 16.0 0.00 0.00 0.00 68 1008.3
20260505150505 66 201 6.0 16.0 0.00 0.00 0.00 69 1008.4
20260505140507 63 172 5.0 11.0 0.00 0.00 0.00 76 1007.3
20260505125008 60 229 3.0 9.0 0.00 0.00 0.00 83 1007.8
20260505124522 59 215 3.0 9.0 0.00 0.00 0.00 83 1007.9
20260505124009 59 210 4.0 8.0 0.00 0.00 0.00 83 1007.9
20260505123508 58 194 3.0 7.0 0.00 0.00 0.00 84 1007.8
20260505123022 58 161 3.0 7.0 0.00 0.00 0.00 84 1007.8
20260505122509 58 165 2.0 5.0 0.00 0.00 0.00 84 1007.8
20260505122003 58 175 2.0 7.0 0.00 0.00 0.00 83 1007.6
20260505121511 58 198 2.0 11.0 0.00 0.00 0.00 83 1007.7
20260505121008 58 218 4.0 10.0 0.00 0.00 0.00 83 1007.3
20260505120504 58 173 4.0 9.0 0.00 0.00 0.00 83 1007.3
20260505120017 58 196 2.0 7.0 0.00 0.00 0.00 84 1007.3
20260505115507 58 277 2.0 11.0 0.00 0.00 0.00 84 1007.2
20260505115010 57 277 3.0 12.0 0.00 0.00 0.00 84 1006.9
20260505114519 57 250 4.0 12.0 0.00 0.00 0.00 84 1006.6
20260505114008 57 168 7.0 17.0 0.00 0.00 0.00 84 1006.0
20260505113507 57 182 6.0 17.0 0.00 0.00 0.00 84 1005.6
20260505113021 57 166 7.0 17.0 0.00 0.00 0.00 84 1005.2
20260505112514 58 191 7.0 17.0 0.00 0.00 0.00 84 1005.0
20260505112011 58 254 7.0 21.0 0.00 0.00 0.00 83 1005.1
20260505111534 58 194 7.0 21.0 0.00 0.00 0.00 83 1005.1
20260505111003 58 198 8.0 21.0 0.00 0.00 0.00 83 1005.2
20260505110504 57 181 11.0 21.0 0.00 0.00 0.00 84 1005.2
20260505102008 57 202 4.0 10.0 0.00 0.00 0.00 84 1006.6
20260505101526 57 185 4.0 10.0 0.00 0.00 0.00 83 1006.6
20260505101010 57 188 3.0 7.0 0.00 0.00 0.00 82 1006.8
20260505100509 58 179 3.0 9.0 0.00 0.00 0.00 81 1006.9
20260505100004 58 150 3.0 9.0 0.00 0.00 0.00 81 1007.3
20260505095502 59 164 2.0 9.0 0.00 0.00 0.00 79 1007.2
20260505095004 59 317 3.0 9.0 0.00 0.00 0.00 78 1007.3
20260505094504 59 222 4.0 10.0 0.00 0.00 0.00 76 1007.1
20260505094003 59 171 5.0 10.0 0.00 0.00 0.00 76 1007.0
20260505093503 59 161 2.0 7.0 0.00 0.00 0.00 77 1007.2
20260505093004 60 321 2.0 7.0 0.00 0.00 0.00 76 1007.1
20260505092502 60 338 2.0 7.0 0.00 0.00 0.00 76 1006.9
20260505092004 60 290 2.0 9.0 0.00 0.00 0.00 76 1006.7
20260505091504 60 266 2.0 9.0 0.00 0.00 0.00 76 1006.8
20260505090503 60 288 3.0 10.0 0.00 0.00 0.00 75 1006.8
20260505085504 60 279 3.0 11.0 0.00 0.00 0.00 75 1006.7
20260505085004 61 293 5.0 11.0 0.00 0.00 0.00 75 1006.7
20260505084505 61 272 3.0 11.0 0.00 0.00 0.00 74 1006.8
20260505084003 61 244 3.0 14.0 0.00 0.00 0.00 74 1006.6
20260505083503 61 154 5.0 14.0 0.00 0.00 0.00 73 1006.7